Regional Weather Roundup
Issued by NWS Midland/Odessa, TX

Home | Current Version | Previous Version | Text Only | Print | Product List | Glossary On
Versions: 1 2 3 4 5 6 7 8 9 10 11 12 13 14 15 16 17 18 19 20 21 22 23 24 25 26 27 28 29 30 31 32 33 34 35 36 37 38 39 40 41 42 43 44 45 46 47 48 49 50
000
ASUS44 KMAF 010410
RWRMAF
MIDLAND AREA WEATHER ROUNDUP
NATIONAL WEATHER SERVICE MIDLAND TX
1100 PM CDT MON AUG 31 2015

...IN SOUTHWEST TEXAS AND SOUTHEAST NEW MEXICO...

CITY           SKY/WX    TMP DP  RH WIND       PRES   REMARKS
ALPINE         CLEAR     77  44  30 S7        30.16R
ANDREWS        FAIR      74  56  53 SE5       30.04R
ARTESIA        CLEAR     81  48  32 S9        30.02R
BIG SPRING     CLEAR     78  51  39 E9        30.03R
CARLSBAD       CLEAR     79  45  29 S7        30.00R
DRYDEN           N/A     86  57  37 SE9       29.98R
FORT STOCKTON  CLEAR     82  55  39 SE12G22   30.01R
GUAD PASS      CLEAR     75  42  30 NE21      30.17R
HOBBS            N/A     72  54  53 CALM      30.06R
MARFA          CLEAR     66  39  37 NE3       30.16R
MIDLAND AIRPK  CLEAR     83  53  35 SE7       30.02R
MIDLAND INTL   CLEAR     79  54  41 S8        30.01R
ODESSA         CLEAR     82  52  35 SE9       30.02R
PECOS          CLEAR     83  51  32 E12       29.97R
PRESIDIO       NOT AVBL
SEMINOLE       CLEAR     73  51  46 S3        30.05R
SNYDER         CLEAR     78  55  44 SE7       30.02R
WINK           CLEAR     82  55  39 SE10      29.98R
$$
...OTHER STATIONS IN TEXAS...

CITY           SKY/WX    TMP DP  RH WIND       PRES   REMARKS
ABILENE        CLEAR     79  60  52 SE10      30.00R
AMARILLO       PTCLDY    76  51  41 S14       30.04R
AUSTIN         PTCLDY    77  70  79 S6        30.00R
BROWNSVILLE    CLOUDY    76  75  97 SW3       29.99R
CORPUS CHRISTI CLOUDY    80  76  87 SE8       29.98R
DALLAS FTW     PTCLDY    84  64  50 SE12      29.98R
DEL RIO        CLEAR     84  66  54 SE16G25   29.95R
EL PASO        PTCLDY    86  43  22 SW7       30.02R
HOUSTON INT    MOCLDY    73  70  90 SE3       30.01R
LUBBOCK        PTCLDY    74  55  51 S8        30.03R
SAN ANGELO     PTCLDY    81  57  43 SE8       29.98R
SAN ANTONIO    PTCLDY    80  67  64 S12       30.02R
WACO           CLEAR     82  67  60 S14       29.99R
WICHITA FALLS  NOT AVBL
$$
...OTHER LOCATIONS IN NEW MEXICO...

CITY           SKY/WX    TMP DP  RH WIND       PRES   REMARKS
ALAMAGORDO     PTCLDY    79  48  34 SE8       30.04R
ALBUQUERQUE    MOCLDY    76  47  35 SE5       30.14S
CANNON AFB     CLEAR     70  51  51 SE7       30.08R
CLOVIS         CLEAR     70  48  46 S7        30.09R
HOLLOMAN AFB   PTCLDY    80  50  34 NE5       30.02R
ROSWELL        CLEAR     76  49  38 SW3       30.02R
RUIDOSO        PTCLDY    64  50  59 MISG      30.28S
SANTA FE       MOCLDY    72  45  37 SE6       30.21R
TRUTH OR CONSE PTCLDY    75  50  41 N7        30.10R
TUCUMCARI      PTCLDY    80  48  32 S13       30.01R
$$



USA.gov is the U.S. government's official web portal to all federal, state and local government web resources and services.